Airport Information

KPWT - Bremerton National Airport

KPWT 191756Z AUTO 00000KT 10SM OVC017 13/09 A3021 RMK AO2 SLP248 T01280089 10128 20106 56002


  • General Information

  • Coordinates: N 47°29'24"/ W 122°45'53"
  • Location: N/A
  • Surveyed Elevation: 444 MSL

Operations

Flow Name Active Runways Conditions

Green background denotes normal operations.


Common Frequencies

Callsign Frequency Position Name

More at the Document Center


Charts